Time,TemperatureF,DewpointF,PressureIn,WindDirection,WindDirectionDegrees,WindSpeedMPH,WindSpeedGustMPH,Humidity,HourlyPrecipIn,Conditions,Clouds,dailyrainin,SoftwareType,DateUTC
2013-06-04 00:05:00,52.7,45.7,30.05,N/A,-737280,0.0,0.0,77,0.00,,,0.00,Wunderground v.1.13,2013-06-04 04:05:00,
2013-06-04 00:10:00,52.6,45.2,30.05,SE,145,0.0,0.0,76,0.00,,,0.00,Wunderground v.1.13,2013-06-04 04:10:00,
2013-06-04 00:15:00,52.4,45.1,30.05,SE,145,0.0,0.0,76,0.00,,,0.00,Wunderground v.1.13,2013-06-04 04:15:00,
2013-06-04 00:25:00,52.1,44.8,30.05,SE,145,0.0,0.0,76,0.00,,,0.00,Wunderground v.1.13,2013-06-04 04:25:00,
2013-06-04 00:35:00,51.8,44.5,30.05,SE,145,0.0,0.0,76,0.00,,,0.00,Wunderground v.1.13,2013-06-04 04:35:00,
2013-06-04 00:40:00,51.6,43.9,30.05,SE,145,0.0,0.0,75,0.00,,,0.00,Wunderground v.1.13,2013-06-04 04:40:00,
2013-06-04 00:45:00,51.4,44.1,30.05,SE,145,0.0,0.0,76,0.00,,,0.00,Wunderground v.1.13,2013-06-04 04:45:00,
2013-06-04 00:55:00,51.1,44.1,30.05,SE,145,0.0,0.0,77,0.00,,,0.00,Wunderground v.1.13,2013-06-04 04:55:00,
2013-06-04 01:05:00,50.5,43.2,30.06,SE,135,0.0,2.0,76,0.00,,,0.00,Wunderground v.1.13,2013-06-04 05:05:00,
2013-06-04 01:15:00,50.2,42.9,30.07,SE,145,0.0,0.0,76,0.00,,,0.00,Wunderground v.1.13,2013-06-04 05:15:00,
2013-06-04 01:25:00,50.0,43.1,30.06,SE,145,0.0,0.0,77,0.00,,,0.00,Wunderground v.1.13,2013-06-04 05:25:00,
2013-06-04 01:30:00,49.9,42.6,30.06,SE,145,0.0,0.0,76,0.00,,,0.00,Wunderground v.1.13,2013-06-04 05:30:00,
2013-06-04 01:35:00,49.9,42.6,30.06,SE,145,0.0,0.0,76,0.00,,,0.00,Wunderground v.1.13,2013-06-04 05:35:00,
2013-06-04 01:45:00,49.7,42.8,30.06,SE,145,0.0,0.0,77,0.00,,,0.00,Wunderground v.1.13,2013-06-04 05:45:00,
2013-06-04 01:55:00,49.6,43.0,30.07,SE,145,0.0,0.0,78,0.00,,,0.00,Wunderground v.1.13,2013-06-04 05:55:00,
2013-06-04 02:05:00,49.4,42.8,30.07,SE,145,0.0,0.0,78,0.00,,,0.00,Wunderground v.1.13,2013-06-04 06:05:00,
2013-06-04 02:15:00,49.0,42.4,30.07,SE,145,0.0,0.0,78,0.00,,,0.00,Wunderground v.1.13,2013-06-04 06:15:00,
2013-06-04 02:20:00,48.8,42.2,30.07,SE,145,0.0,0.0,78,0.00,,,0.00,Wunderground v.1.13,2013-06-04 06:20:00,
2013-06-04 02:30:00,48.4,42.2,30.07,SE,145,0.0,0.0,79,0.00,,,0.00,Wunderground v.1.13,2013-06-04 06:30:00,
2013-06-04 02:40:00,48.0,41.8,30.07,SE,145,0.0,0.0,79,0.00,,,0.00,Wunderground v.1.13,2013-06-04 06:40:00,
2013-06-04 02:50:00,47.7,41.8,30.07,SE,145,0.0,0.0,80,0.00,,,0.00,Wunderground v.1.13,2013-06-04 06:50:00,
2013-06-04 03:00:00,47.4,41.5,30.07,SE,145,0.0,0.0,80,0.00,,,0.00,Wunderground v.1.13,2013-06-04 07:00:00,
2013-06-04 03:05:00,47.2,41.7,30.07,SE,145,0.0,0.0,81,0.00,,,0.00,Wunderground v.1.13,2013-06-04 07:05:00,
2013-06-04 03:15:00,46.9,41.4,30.07,SE,145,0.0,0.0,81,0.00,,,0.00,Wunderground v.1.13,2013-06-04 07:15:00,
2013-06-04 03:20:00,46.7,41.2,30.07,SE,145,0.0,0.0,81,0.00,,,0.00,Wunderground v.1.13,2013-06-04 07:20:00,
2013-06-04 03:30:00,46.4,41.2,30.07,SE,145,0.0,0.0,82,0.00,,,0.00,Wunderground v.1.13,2013-06-04 07:30:00,
2013-06-04 03:35:00,46.3,41.1,30.07,SE,145,0.0,0.0,82,0.00,,,0.00,Wunderground v.1.13,2013-06-04 07:35:00,
2013-06-04 03:40:00,46.1,40.9,30.07,SE,145,0.0,0.0,82,0.00,,,0.00,Wunderground v.1.13,2013-06-04 07:40:00,
2013-06-04 03:45:00,46.0,40.8,30.07,SE,145,0.0,0.0,82,0.00,,,0.00,Wunderground v.1.13,2013-06-04 07:45:00,
2013-06-04 03:50:00,45.9,40.7,30.08,SE,145,0.0,0.0,82,0.00,,,0.00,Wunderground v.1.13,2013-06-04 07:50:00,
2013-06-04 04:00:00,45.7,40.8,30.08,SE,145,0.0,0.0,83,0.00,,,0.00,Wunderground v.1.13,2013-06-04 08:00:00,
2013-06-04 04:05:00,45.6,40.7,30.08,SE,145,0.0,0.0,83,0.00,,,0.00,Wunderground v.1.13,2013-06-04 08:05:00,
2013-06-04 04:15:00,45.4,40.5,30.08,SE,145,0.0,0.0,83,0.00,,,0.00,Wunderground v.1.13,2013-06-04 08:15:00,
2013-06-04 04:25:00,45.3,40.7,30.08,SE,145,0.0,0.0,84,0.00,,,0.00,Wunderground v.1.13,2013-06-04 08:25:00,
2013-06-04 04:35:00,45.2,40.7,30.09,SE,145,0.0,0.0,84,0.00,,,0.00,Wunderground v.1.13,2013-06-04 08:35:00,
2013-06-04 04:40:00,45.1,40.6,30.09,SE,145,0.0,0.0,84,0.00,,,0.00,Wunderground v.1.13,2013-06-04 08:40:00,
2013-06-04 04:50:00,45.0,40.8,30.09,SE,145,0.0,0.0,85,0.00,,,0.00,Wunderground v.1.13,2013-06-04 08:50:00,
2013-06-04 05:00:00,44.8,40.6,30.10,SE,145,0.0,0.0,85,0.00,,,0.00,Wunderground v.1.13,2013-06-04 09:00:00,
2013-06-04 05:05:00,44.7,40.5,30.10,SE,145,0.0,0.0,85,0.00,,,0.00,Wunderground v.1.13,2013-06-04 09:05:00,
2013-06-04 05:15:00,44.5,40.6,30.10,SE,145,0.0,0.0,86,0.00,,,0.00,Wunderground v.1.13,2013-06-04 09:15:00,
2013-06-04 05:30:00,44.2,40.3,30.11,SE,145,0.0,0.0,86,0.00,,,0.00,Wunderground v.1.13,2013-06-04 09:30:00,
2013-06-04 05:40:00,44.1,40.5,30.11,SE,145,0.0,0.0,87,0.00,,,0.00,Wunderground v.1.13,2013-06-04 09:40:00,
2013-06-04 05:45:00,44.1,40.5,30.12,SE,145,0.0,0.0,87,0.00,,,0.00,Wunderground v.1.13,2013-06-04 09:45:00,
2013-06-04 05:50:00,44.2,40.6,30.12,SE,145,0.0,0.0,87,0.00,,,0.00,Wunderground v.1.13,2013-06-04 09:50:00,
2013-06-04 06:00:00,44.5,41.2,30.12,SE,145,0.0,0.0,88,0.00,,,0.00,Wunderground v.1.13,2013-06-04 10:00:00,
2013-06-04 06:05:00,44.6,41.3,30.12,SE,145,0.0,0.0,88,0.00,,,0.00,Wunderground v.1.13,2013-06-04 10:05:00,
2013-06-04 06:15:00,44.6,41.3,30.12,SE,145,0.0,0.0,88,0.00,,,0.00,Wunderground v.1.13,2013-06-04 10:15:00,
2013-06-04 06:20:00,44.5,41.2,30.12,SE,145,0.0,0.0,88,0.00,,,0.00,Wunderground v.1.13,2013-06-04 10:20:00,
2013-06-04 06:25:00,44.4,41.1,30.12,SE,145,0.0,0.0,88,0.00,,,0.00,Wunderground v.1.13,2013-06-04 10:25:00,
2013-06-04 06:30:00,44.3,41.0,30.12,SE,145,0.0,0.0,88,0.00,,,0.00,Wunderground v.1.13,2013-06-04 10:30:00,
2013-06-04 06:40:00,44.3,41.0,30.12,SE,145,0.0,0.0,88,0.00,,,0.00,Wunderground v.1.13,2013-06-04 10:40:00,
2013-06-04 06:45:00,44.3,41.0,30.13,SE,145,0.0,0.0,88,0.00,,,0.00,Wunderground v.1.13,2013-06-04 10:45:00,
2013-06-04 06:55:00,44.3,41.0,30.13,SE,145,0.0,0.0,88,0.00,,,0.00,Wunderground v.1.13,2013-06-04 10:55:00,
2013-06-04 07:05:00,44.3,41.3,30.14,SE,145,0.0,0.0,89,0.00,,,0.00,Wunderground v.1.13,2013-06-04 11:05:00,
2013-06-04 07:15:00,44.5,41.5,30.14,SE,145,0.0,0.0,89,0.00,,,0.00,Wunderground v.1.13,2013-06-04 11:15:00,
2013-06-04 07:20:00,44.7,41.7,30.14,SE,145,0.0,0.0,89,0.00,,,0.00,Wunderground v.1.13,2013-06-04 11:20:00,
2013-06-04 07:25:00,44.9,41.9,30.14,SE,145,0.0,0.0,89,0.00,,,0.00,Wunderground v.1.13,2013-06-04 11:25:00,
2013-06-04 07:30:00,45.0,42.0,30.14,SE,145,0.0,0.0,89,0.00,,,0.00,Wunderground v.1.13,2013-06-04 11:30:00,
2013-06-04 07:35:00,45.1,42.3,30.14,SE,145,0.0,0.0,90,0.00,,,0.00,Wunderground v.1.13,2013-06-04 11:35:00,
2013-06-04 07:40:00,45.2,42.2,30.14,SE,145,0.0,0.0,89,0.00,,,0.00,Wunderground v.1.13,2013-06-04 11:40:00,
2013-06-04 07:45:00,45.4,42.3,30.14,SE,145,0.0,0.0,89,0.00,,,0.00,Wunderground v.1.13,2013-06-04 11:45:00,
2013-06-04 07:50:00,45.5,42.7,30.14,SE,145,0.0,0.0,90,0.00,,,0.00,Wunderground v.1.13,2013-06-04 11:50:00,
2013-06-04 07:55:00,45.7,42.9,30.14,SE,145,0.0,0.0,90,0.00,,,0.00,Wunderground v.1.13,2013-06-04 11:55:00,
2013-06-04 08:00:00,45.9,43.1,30.14,SE,145,0.0,0.0,90,0.00,,,0.00,Wunderground v.1.13,2013-06-04 12:00:00,
2013-06-04 08:05:00,46.3,43.5,30.14,N/A,-737280,0.0,0.0,90,0.00,,,0.00,Wunderground v.1.13,2013-06-04 12:05:00,
2013-06-04 08:15:00,46.8,44.0,30.15,SE,145,0.0,0.0,90,0.00,,,0.00,Wunderground v.1.13,2013-06-04 12:15:00,
2013-06-04 08:25:00,47.7,45.2,30.15,SE,145,0.0,0.0,91,0.00,,,0.00,Wunderground v.1.13,2013-06-04 12:25:00,
2013-06-04 08:30:00,48.3,45.8,30.15,SE,145,0.0,0.0,91,0.00,,,0.00,Wunderground v.1.13,2013-06-04 12:30:00,
2013-06-04 08:35:00,48.8,46.3,30.15,SE,145,0.0,0.0,91,0.00,,,0.00,Wunderground v.1.13,2013-06-04 12:35:00,
2013-06-04 08:40:00,49.6,47.1,30.15,SE,145,0.0,0.0,91,0.00,,,0.00,Wunderground v.1.13,2013-06-04 12:40:00,
2013-06-04 08:45:00,50.7,48.2,30.15,SE,145,0.0,0.0,91,0.00,,,0.00,Wunderground v.1.13,2013-06-04 12:45:00,
2013-06-04 08:50:00,52.3,47.0,30.15,SE,146,0.0,1.0,82,0.00,,,0.00,Wunderground v.1.13,2013-06-04 12:50:00,
2013-06-04 09:00:00,54.7,45.5,30.16,SE,146,0.0,1.0,71,0.00,,,0.00,Wunderground v.1.13,2013-06-04 13:00:00,
2013-06-04 09:05:00,55.3,45.7,30.15,SE,135,1.0,3.0,70,0.00,,,0.00,Wunderground v.1.13,2013-06-04 13:05:00,
2013-06-04 09:15:00,56.5,47.6,30.16,SE,146,0.0,0.0,72,0.00,,,0.00,Wunderground v.1.13,2013-06-04 13:15:00,
2013-06-04 09:25:00,57.4,46.5,30.16,SE,141,1.0,2.0,67,0.00,,,0.00,Wunderground v.1.13,2013-06-04 13:25:00,
2013-06-04 09:30:00,57.5,47.4,30.16,SE,142,1.0,1.0,69,0.00,,,0.00,Wunderground v.1.13,2013-06-04 13:30:00,
2013-06-04 09:35:00,57.7,47.6,30.17,SSE,160,1.0,2.0,69,0.00,,,0.00,Wunderground v.1.13,2013-06-04 13:35:00,
2013-06-04 09:45:00,58.0,46.3,30.17,South,171,1.0,1.0,65,0.00,,,0.00,Wunderground v.1.13,2013-06-04 13:45:00,
2013-06-04 09:55:00,59.0,46.4,30.17,SSE,152,1.0,1.0,63,0.00,,,0.00,Wunderground v.1.13,2013-06-04 13:55:00,
2013-06-04 10:05:00,59.4,46.8,30.16,SE,138,1.0,2.0,63,0.00,,,0.00,Wunderground v.1.13,2013-06-04 14:05:00,
2013-06-04 10:15:00,59.9,47.3,30.16,SE,134,1.0,1.0,63,0.00,,,0.00,Wunderground v.1.13,2013-06-04 14:15:00,
2013-06-04 10:20:00,60.2,47.1,30.16,SE,146,1.0,1.0,62,0.00,,,0.00,Wunderground v.1.13,2013-06-04 14:20:00,
2013-06-04 10:30:00,60.9,47.4,30.16,South,179,1.0,1.0,61,0.00,,,0.00,Wunderground v.1.13,2013-06-04 14:30:00,
2013-06-04 10:40:00,61.8,48.6,30.16,SSE,161,1.0,1.0,62,0.00,,,0.00,Wunderground v.1.13,2013-06-04 14:40:00,
2013-06-04 10:50:00,62.1,48.0,30.16,SSE,149,1.0,1.0,60,0.00,,,0.00,Wunderground v.1.13,2013-06-04 14:50:00,
2013-06-04 11:00:00,63.4,50.1,30.15,SSE,150,2.0,3.0,62,0.00,,,0.00,Wunderground v.1.13,2013-06-04 15:00:00,
2013-06-04 11:05:00,63.8,49.2,30.15,NE,37,2.0,3.0,59,0.00,,,0.00,Wunderground v.1.13,2013-06-04 15:05:00,
2013-06-04 11:15:00,64.0,48.9,30.15,NW,306,2.0,3.0,58,0.00,,,0.00,Wunderground v.1.13,2013-06-04 15:15:00,
2013-06-04 11:20:00,64.1,49.9,30.15,SE,124,2.0,4.0,60,0.00,,,0.00,Wunderground v.1.13,2013-06-04 15:20:00,
2013-06-04 11:25:00,64.2,49.1,30.15,NE,48,3.0,3.0,58,0.00,,,0.00,Wunderground v.1.13,2013-06-04 15:25:00,
2013-06-04 11:35:00,64.4,48.8,30.14,South,183,2.0,3.0,57,0.00,,,0.00,Wunderground v.1.13,2013-06-04 15:35:00,
2013-06-04 11:40:00,64.1,48.1,30.14,SW,236,3.0,3.0,56,0.00,,,0.00,Wunderground v.1.13,2013-06-04 15:40:00,
2013-06-04 11:45:00,64.1,49.9,30.14,SSE,157,3.0,3.0,60,0.00,,,0.00,Wunderground v.1.13,2013-06-04 15:45:00,
2013-06-04 11:50:00,64.4,48.8,30.14,South,191,2.0,3.0,57,0.00,,,0.00,Wunderground v.1.13,2013-06-04 15:50:00,
2013-06-04 11:55:00,64.4,49.3,30.14,South,184,2.0,2.0,58,0.00,,,0.00,Wunderground v.1.13,2013-06-04 15:55:00,
2013-06-04 12:05:00,65.4,48.3,30.14,SSW,211,3.0,3.0,54,0.00,,,0.00,Wunderground v.1.13,2013-06-04 16:05:00,
2013-06-04 12:15:00,66.5,48.8,30.13,West,275,2.0,5.0,53,0.00,,,0.00,Wunderground v.1.13,2013-06-04 16:15:00,
2013-06-04 12:25:00,66.6,48.9,30.13,SE,128,4.0,4.0,53,0.00,,,0.00,Wunderground v.1.13,2013-06-04 16:25:00,
2013-06-04 12:30:00,66.5,49.3,30.13,West,269,4.0,7.0,54,0.00,,,0.00,Wunderground v.1.13,2013-06-04 16:30:00,
2013-06-04 12:40:00,66.9,49.2,30.12,SW,215,2.0,4.0,53,0.00,,,0.00,Wunderground v.1.13,2013-06-04 16:40:00,
2013-06-04 12:45:00,66.8,49.1,30.12,South,179,2.0,2.0,53,0.00,,,0.00,Wunderground v.1.13,2013-06-04 16:45:00,
2013-06-04 12:55:00,67.5,49.3,30.12,East,86,2.0,2.0,52,0.00,,,0.00,Wunderground v.1.13,2013-06-04 16:55:00,
2013-06-04 13:05:00,68.1,49.3,30.12,NNE,19,1.0,1.0,51,0.00,,,0.00,Wunderground v.1.13,2013-06-04 17:05:00,
2013-06-04 13:15:00,68.5,49.1,30.12,ESE,121,2.0,2.0,50,0.00,,,0.00,Wunderground v.1.13,2013-06-04 17:15:00,
2013-06-04 13:20:00,67.4,49.7,30.12,SSW,202,3.0,5.0,53,0.00,,,0.00,Wunderground v.1.13,2013-06-04 17:20:00,
2013-06-04 13:25:00,67.7,49.9,30.13,West,261,3.0,3.0,53,0.00,,,0.00,Wunderground v.1.13,2013-06-04 17:25:00,
2013-06-04 13:30:00,68.0,49.7,30.12,SW,224,2.0,2.0,52,0.00,,,0.00,Wunderground v.1.13,2013-06-04 17:30:00,
2013-06-04 13:35:00,68.8,49.9,30.12,WSW,252,2.0,4.0,51,0.00,,,0.00,Wunderground v.1.13,2013-06-04 17:35:00,
2013-06-04 13:45:00,68.6,49.2,30.12,SW,215,3.0,3.0,50,0.00,,,0.00,Wunderground v.1.13,2013-06-04 17:45:00,
2013-06-04 13:55:00,69.1,50.2,30.12,SE,137,2.0,2.0,51,0.00,,,0.00,Wunderground v.1.13,2013-06-04 17:55:00,
2013-06-04 14:00:00,68.8,49.9,30.12,East,98,3.0,3.0,51,0.00,,,0.00,Wunderground v.1.13,2013-06-04 18:00:00,
2013-06-04 14:05:00,69.1,51.8,30.11,SE,140,3.0,6.0,54,0.00,,,0.00,Wunderground v.1.13,2013-06-04 18:05:00,
2013-06-04 14:15:00,70.1,50.6,30.11,East,98,2.0,2.0,50,0.00,,,0.00,Wunderground v.1.13,2013-06-04 18:15:00,
2013-06-04 14:20:00,69.2,50.8,30.11,SSE,148,2.0,2.0,52,0.00,,,0.00,Wunderground v.1.13,2013-06-04 18:20:00,
2013-06-04 14:25:00,69.6,51.7,30.11,South,182,2.0,2.0,53,0.00,,,0.00,Wunderground v.1.13,2013-06-04 18:25:00,
2013-06-04 14:30:00,69.8,50.9,30.11,SE,141,1.0,1.0,51,0.00,,,0.00,Wunderground v.1.13,2013-06-04 18:30:00,
2013-06-04 14:35:00,70.4,51.9,30.11,SSE,159,1.0,2.0,52,0.00,,,0.00,Wunderground v.1.13,2013-06-04 18:35:00,
2013-06-04 14:40:00,70.6,51.6,30.11,SW,223,2.0,6.0,51,0.00,,,0.00,Wunderground v.1.13,2013-06-04 18:40:00,
2013-06-04 14:50:00,70.3,51.3,30.11,SSE,149,4.0,4.0,51,0.00,,,0.00,Wunderground v.1.13,2013-06-04 18:50:00,
2013-06-04 15:00:00,70.9,50.8,30.10,SSW,192,2.0,2.0,49,0.00,,,0.00,Wunderground v.1.13,2013-06-04 19:00:00,
2013-06-04 15:05:00,71.3,52.8,30.10,SSW,207,2.0,4.0,52,0.00,,,0.00,Wunderground v.1.13,2013-06-04 19:05:00,
2013-06-04 15:15:00,71.7,51.0,30.10,WNW,297,2.0,3.0,48,0.00,,,0.00,Wunderground v.1.13,2013-06-04 19:15:00,
2013-06-04 15:20:00,71.8,50.5,30.09,West,269,3.0,3.0,47,0.00,,,0.00,Wunderground v.1.13,2013-06-04 19:20:00,
2013-06-04 15:25:00,71.5,50.8,30.09,SSW,213,3.0,6.0,48,0.00,,,0.00,Wunderground v.1.13,2013-06-04 19:25:00,
2013-06-04 15:35:00,71.3,51.7,30.10,SSW,202,2.0,2.0,50,0.00,,,0.00,Wunderground v.1.13,2013-06-04 19:35:00,
2013-06-04 15:40:00,71.7,51.0,30.09,SW,221,2.0,5.0,48,0.00,,,0.00,Wunderground v.1.13,2013-06-04 19:40:00,
2013-06-04 15:45:00,71.3,51.1,30.09,SE,144,2.0,2.0,49,0.00,,,0.00,Wunderground v.1.13,2013-06-04 19:45:00,
2013-06-04 15:55:00,71.4,51.2,30.09,South,178,1.0,1.0,49,0.00,,,0.00,Wunderground v.1.13,2013-06-04 19:55:00,
2013-06-04 16:05:00,71.9,52.8,30.09,SSW,194,2.0,2.0,51,0.00,,,0.00,Wunderground v.1.13,2013-06-04 20:05:00,
2013-06-04 16:15:00,72.0,52.9,30.08,South,189,1.0,1.0,51,0.00,,,0.00,Wunderground v.1.13,2013-06-04 20:15:00,
2013-06-04 16:25:00,71.7,52.6,30.08,ESE,121,1.0,2.0,51,0.00,,,0.00,Wunderground v.1.13,2013-06-04 20:25:00,
2013-06-04 16:30:00,71.7,53.1,30.08,South,190,2.0,2.0,52,0.00,,,0.00,Wunderground v.1.13,2013-06-04 20:30:00,
2013-06-04 16:35:00,72.0,51.8,30.08,ENE,73,2.0,2.0,49,0.00,,,0.00,Wunderground v.1.13,2013-06-04 20:35:00,
2013-06-04 16:45:00,73.2,52.3,30.08,WSW,249,2.0,2.0,48,0.00,,,0.00,Wunderground v.1.13,2013-06-04 20:45:00,
2013-06-04 16:50:00,73.0,52.1,30.08,WSW,240,2.0,4.0,48,0.00,,,0.00,Wunderground v.1.13,2013-06-04 20:50:00,
2013-06-04 17:00:00,73.1,51.7,30.08,SW,225,2.0,2.0,47,0.00,,,0.00,Wunderground v.1.13,2013-06-04 21:00:00,
2013-06-04 17:05:00,73.4,51.9,30.08,SW,217,1.0,1.0,47,0.00,,,0.00,Wunderground v.1.13,2013-06-04 21:05:00,
2013-06-04 17:15:00,72.7,53.0,30.07,SE,136,1.0,3.0,50,0.00,,,0.00,Wunderground v.1.13,2013-06-04 21:15:00,
2013-06-04 17:20:00,73.0,51.0,30.08,NNW,348,2.0,4.0,46,0.00,,,0.00,Wunderground v.1.13,2013-06-04 21:20:00,
2013-06-04 17:30:00,72.9,51.5,30.07,SE,130,2.0,3.0,47,0.00,,,0.00,Wunderground v.1.13,2013-06-04 21:30:00,
2013-06-04 17:35:00,73.1,53.4,30.07,NE,44,1.0,1.0,50,0.00,,,0.00,Wunderground v.1.13,2013-06-04 21:35:00,
2013-06-04 17:45:00,74.5,54.6,30.07,WSW,253,0.0,2.0,50,0.00,,,0.00,Wunderground v.1.13,2013-06-04 21:45:00,
2013-06-04 17:50:00,75.1,53.5,30.08,WSW,250,1.0,1.0,47,0.00,,,0.00,Wunderground v.1.13,2013-06-04 21:50:00,
2013-06-04 17:55:00,75.2,52.4,30.08,ENE,57,1.0,2.0,45,0.00,,,0.00,Wunderground v.1.13,2013-06-04 21:55:00,
2013-06-04 18:05:00,75.1,52.3,30.08,SE,131,1.0,2.0,45,0.00,,,0.00,Wunderground v.1.13,2013-06-04 22:05:00,
2013-06-04 18:15:00,74.6,54.7,30.08,SE,146,1.0,1.0,50,0.00,,,0.00,Wunderground v.1.13,2013-06-04 22:15:00,
2013-06-04 18:20:00,74.8,54.9,30.08,SE,146,0.0,1.0,50,0.00,,,0.00,Wunderground v.1.13,2013-06-04 22:20:00,
2013-06-04 18:25:00,75.0,52.2,30.08,NW,326,1.0,2.0,45,0.00,,,0.00,Wunderground v.1.13,2013-06-04 22:25:00,
2013-06-04 18:35:00,75.1,52.9,30.08,NNW,336,1.0,1.0,46,0.00,,,0.00,Wunderground v.1.13,2013-06-04 22:35:00,
2013-06-04 18:40:00,74.8,51.4,30.08,NW,310,1.0,1.0,44,0.00,,,0.00,Wunderground v.1.13,2013-06-04 22:40:00,
2013-06-04 18:45:00,74.7,53.7,30.08,SW,231,1.0,1.0,48,0.00,,,0.00,Wunderground v.1.13,2013-06-04 22:45:00,
2013-06-04 18:55:00,74.4,53.4,30.08,SW,230,1.0,1.0,48,0.00,,,0.00,Wunderground v.1.13,2013-06-04 22:55:00,
2013-06-04 19:00:00,74.5,55.2,30.08,SW,230,1.0,1.0,51,0.00,,,0.00,Wunderground v.1.13,2013-06-04 23:00:00,
2013-06-04 19:05:00,74.3,53.9,30.09,SW,231,0.0,1.0,49,0.00,,,0.00,Wunderground v.1.13,2013-06-04 23:05:00,
2013-06-04 19:15:00,72.8,53.1,30.09,SW,230,1.0,1.0,50,0.00,,,0.00,Wunderground v.1.13,2013-06-04 23:15:00,
2013-06-04 19:20:00,71.9,52.2,30.09,SW,231,1.0,1.0,50,0.00,,,0.00,Wunderground v.1.13,2013-06-04 23:20:00,
2013-06-04 19:25:00,71.3,53.3,30.09,SW,231,1.0,1.0,53,0.00,,,0.00,Wunderground v.1.13,2013-06-04 23:25:00,
2013-06-04 19:30:00,71.0,53.0,30.09,SW,231,1.0,1.0,53,0.00,,,0.00,Wunderground v.1.13,2013-06-04 23:30:00,
2013-06-04 19:35:00,70.7,53.2,30.09,SW,231,0.0,2.0,54,0.00,,,0.00,Wunderground v.1.13,2013-06-04 23:35:00,
2013-06-04 19:45:00,69.9,53.0,30.09,SW,231,1.0,1.0,55,0.00,,,0.00,Wunderground v.1.13,2013-06-04 23:45:00,
2013-06-04 19:50:00,69.5,53.1,30.09,SW,231,1.0,1.0,56,0.00,,,0.00,Wunderground v.1.13,2013-06-04 23:50:00,
2013-06-04 19:55:00,69.1,53.2,30.09,SW,231,1.0,1.0,57,0.00,,,0.00,Wunderground v.1.13,2013-06-04 23:55:00,
2013-06-04 20:00:00,68.6,52.8,30.09,SW,230,1.0,2.0,57,0.00,,,0.00,Wunderground v.1.13,2013-06-05 00:00:00,
2013-06-04 20:05:00,68.3,53.4,30.10,SW,230,2.0,2.0,59,0.00,,,0.00,Wunderground v.1.13,2013-06-05 00:05:00,
2013-06-04 20:15:00,67.6,52.8,30.10,SW,231,0.0,0.0,59,0.00,,,0.00,Wunderground v.1.13,2013-06-05 00:15:00,
2013-06-04 20:20:00,67.2,51.9,30.10,SW,231,0.0,0.0,58,0.00,,,0.00,Wunderground v.1.13,2013-06-05 00:20:00,
2013-06-04 20:25:00,66.8,52.0,30.10,SW,231,0.0,0.0,59,0.00,,,0.00,Wunderground v.1.13,2013-06-05 00:25:00,
2013-06-04 20:30:00,66.5,52.2,30.10,SW,230,0.0,1.0,60,0.00,,,0.00,Wunderground v.1.13,2013-06-05 00:30:00,
2013-06-04 20:35:00,66.2,52.3,30.10,SW,231,0.0,0.0,61,0.00,,,0.00,Wunderground v.1.13,2013-06-05 00:35:00,
2013-06-04 20:40:00,65.9,52.1,30.10,SW,231,0.0,0.0,61,0.00,,,0.00,Wunderground v.1.13,2013-06-05 00:40:00,
2013-06-04 20:45:00,65.6,51.8,30.10,SW,230,0.0,0.0,61,0.00,,,0.00,Wunderground v.1.13,2013-06-05 00:45:00,
2013-06-04 20:50:00,65.4,52.5,30.10,SW,231,0.0,0.0,63,0.00,,,0.00,Wunderground v.1.13,2013-06-05 00:50:00,
2013-06-04 20:55:00,65.2,52.3,30.10,SW,230,0.0,0.0,63,0.00,,,0.00,Wunderground v.1.13,2013-06-05 00:55:00,
2013-06-04 21:00:00,64.8,51.9,30.10,SW,230,0.0,0.0,63,0.00,,,0.00,Wunderground v.1.13,2013-06-05 01:00:00,
2013-06-04 21:05:00,64.4,52.0,30.10,N/A,-737280,0.0,0.0,64,0.00,,,0.00,Wunderground v.1.13,2013-06-05 01:05:00,
2013-06-04 21:15:00,63.8,51.4,30.11,SW,231,0.0,0.0,64,0.00,,,0.00,Wunderground v.1.13,2013-06-05 01:15:00,
2013-06-04 21:20:00,63.4,51.4,30.11,SW,231,0.0,0.0,65,0.00,,,0.00,Wunderground v.1.13,2013-06-05 01:20:00,
2013-06-04 21:30:00,62.8,50.9,30.11,SW,231,0.0,0.0,65,0.00,,,0.00,Wunderground v.1.13,2013-06-05 01:30:00,
2013-06-04 21:35:00,62.5,51.0,30.11,SW,230,0.0,0.0,66,0.00,,,0.00,Wunderground v.1.13,2013-06-05 01:35:00,
2013-06-04 21:40:00,62.1,51.0,30.11,SW,231,0.0,0.0,67,0.00,,,0.00,Wunderground v.1.13,2013-06-05 01:40:00,
2013-06-04 21:45:00,61.8,50.7,30.11,SW,231,0.0,0.0,67,0.00,,,0.00,Wunderground v.1.13,2013-06-05 01:45:00,
2013-06-04 21:50:00,61.6,50.9,30.11,SW,230,0.0,0.0,68,0.00,,,0.00,Wunderground v.1.13,2013-06-05 01:50:00,
2013-06-04 22:00:00,61.0,50.4,30.11,SW,231,0.0,0.0,68,0.00,,,0.00,Wunderground v.1.13,2013-06-05 02:00:00,
2013-06-04 22:05:00,60.6,50.4,30.11,SW,230,0.0,0.0,69,0.00,,,0.00,Wunderground v.1.13,2013-06-05 02:05:00,
2013-06-04 22:15:00,60.1,50.7,30.11,SW,231,0.0,0.0,71,0.00,,,0.00,Wunderground v.1.13,2013-06-05 02:15:00,
2013-06-04 22:20:00,59.8,50.0,30.12,SW,231,0.0,0.0,70,0.00,,,0.00,Wunderground v.1.13,2013-06-05 02:20:00,
2013-06-04 22:25:00,59.5,50.1,30.12,SW,230,0.0,0.0,71,0.00,,,0.00,Wunderground v.1.13,2013-06-05 02:25:00,
2013-06-04 22:35:00,59.0,50.0,30.12,SW,230,0.0,0.0,72,0.00,,,0.00,Wunderground v.1.13,2013-06-05 02:35:00,
2013-06-04 22:40:00,59.0,50.4,30.12,SW,231,0.0,0.0,73,0.00,,,0.00,Wunderground v.1.13,2013-06-05 02:40:00,
2013-06-04 22:45:00,58.6,50.3,30.12,SW,231,0.0,0.0,74,0.00,,,0.00,Wunderground v.1.13,2013-06-05 02:45:00,
2013-06-04 22:50:00,58.3,50.4,30.12,SW,231,0.0,0.0,75,0.00,,,0.00,Wunderground v.1.13,2013-06-05 02:50:00,
2013-06-04 22:55:00,58.1,50.2,30.12,SW,230,0.0,0.0,75,0.00,,,0.00,Wunderground v.1.13,2013-06-05 02:55:00,
2013-06-04 23:00:00,58.0,50.1,30.12,SW,231,0.0,0.0,75,0.00,,,0.00,Wunderground v.1.13,2013-06-05 03:00:00,
2013-06-04 23:10:00,57.6,50.1,30.13,SW,231,0.0,0.0,76,0.00,,,0.00,Wunderground v.1.13,2013-06-05 03:10:00,
2013-06-04 23:15:00,57.4,50.2,30.13,SW,231,0.0,0.0,77,0.00,,,0.00,Wunderground v.1.13,2013-06-05 03:15:00,
2013-06-04 23:20:00,57.3,50.1,30.12,SW,231,0.0,0.0,77,0.00,,,0.00,Wunderground v.1.13,2013-06-05 03:20:00,
2013-06-04 23:25:00,57.2,50.4,30.12,SW,230,0.0,0.0,78,0.00,,,0.00,Wunderground v.1.13,2013-06-05 03:25:00,
2013-06-04 23:30:00,56.9,50.1,30.13,SW,231,0.0,0.0,78,0.00,,,0.00,Wunderground v.1.13,2013-06-05 03:30:00,
2013-06-04 23:40:00,56.6,50.5,30.13,SW,231,0.0,0.0,80,0.00,,,0.00,Wunderground v.1.13,2013-06-05 03:40:00,
2013-06-04 23:45:00,56.4,50.3,30.13,SW,231,0.0,0.0,80,0.00,,,0.00,Wunderground v.1.13,2013-06-05 03:45:00,
2013-06-04 23:50:00,56.1,50.3,30.13,SW,231,0.0,0.0,81,0.00,,,0.00,Wunderground v.1.13,2013-06-05 03:50:00,
2013-06-04 23:55:00,56.0,50.3,30.13,SW,230,0.0,0.0,81,0.00,,,0.00,Wunderground v.1.13,2013-06-05 03:55:00,